Time,TemperatureF,DewpointF,PressureIn,WindDirection,WindDirectionDegrees,WindSpeedMPH,WindSpeedGustMPH,Humidity,HourlyPrecipIn,Conditions,Clouds,dailyrainin,SoftwareType,DateUTC
2013-01-21 00:00:00,30.8,14.0,29.95,WNW,292,12.8,17.7,47,0.00,,,0.00,Rainwise IP-100,2013-01-21 05:00:00,
2013-01-21 00:02:00,30.8,14.0,29.95,NW,315,4.4,25.4,47,0.00,,,0.00,Rainwise IP-100,2013-01-21 05:02:00,
2013-01-21 00:07:00,30.9,14.0,29.95,WNW,292,1.4,16.6,46,0.00,,,0.00,Rainwise IP-100,2013-01-21 05:07:00,
2013-01-21 00:12:00,30.8,14.0,29.96,NNW,337,2.8,13.5,46,0.00,,,0.00,Rainwise IP-100,2013-01-21 05:12:00,
2013-01-21 00:16:00,30.6,14.0,29.96,WNW,292,13.8,19.8,47,0.00,,,0.00,Rainwise IP-100,2013-01-21 05:16:00,
2013-01-21 00:21:00,30.5,14.0,29.96,WNW,292,16.3,21.7,46,0.00,,,0.00,Rainwise IP-100,2013-01-21 05:21:00,
2013-01-21 00:26:00,30.5,14.0,29.96,NNW,337,9.1,20.5,46,0.00,,,0.00,Rainwise IP-100,2013-01-21 05:26:00,
2013-01-21 00:31:00,30.4,14.0,29.96,WNW,292,7.9,14.0,45,0.00,,,0.00,Rainwise IP-100,2013-01-21 05:31:00,
2013-01-21 00:36:00,30.3,14.0,29.97,NNW,337,9.6,20.3,45,0.00,,,0.00,Rainwise IP-100,2013-01-21 05:36:00,
2013-01-21 00:42:00,30.1,14.0,29.97,NNW,337,4.9,25.6,45,0.00,,,0.00,Rainwise IP-100,2013-01-21 05:42:00,
2013-01-21 00:47:00,30.1,14.0,29.97,NNW,337,4.4,18.7,45,0.00,,,0.00,Rainwise IP-100,2013-01-21 05:47:00,
2013-01-21 00:52:00,30.1,14.0,29.97,WNW,292,18.7,18.7,45,0.00,,,0.00,Rainwise IP-100,2013-01-21 05:52:00,
2013-01-21 00:57:00,30.0,14.0,29.98,WSW,247,2.6,18.7,45,0.00,,,0.00,Rainwise IP-100,2013-01-21 05:57:00,
2013-01-21 01:02:00,30.0,14.0,29.98,WNW,292,5.6,18.2,45,0.00,,,0.00,Rainwise IP-100,2013-01-21 06:02:00,
2013-01-21 01:07:00,29.9,14.0,29.99,NW,315,8.6,16.8,45,0.00,,,0.00,Rainwise IP-100,2013-01-21 06:07:00,
2013-01-21 01:12:00,29.8,14.0,29.99,WNW,292,7.7,13.8,45,0.00,,,0.00,Rainwise IP-100,2013-01-21 06:12:00,
2013-01-21 01:17:00,29.7,14.0,29.99,WNW,292,3.0,8.9,46,0.00,,,0.00,Rainwise IP-100,2013-01-21 06:17:00,
2013-01-21 01:22:00,29.5,14.0,30.00,WNW,292,6.3,14.7,46,0.00,,,0.00,Rainwise IP-100,2013-01-21 06:22:00,
2013-01-21 01:27:00,29.4,11.0,29.99,WNW,292,12.6,12.6,46,0.00,,,0.00,Rainwise IP-100,2013-01-21 06:27:00,
2013-01-21 01:32:00,29.4,11.0,29.99,WNW,292,9.3,13.5,46,0.00,,,0.00,Rainwise IP-100,2013-01-21 06:32:00,
2013-01-21 01:37:00,29.3,11.0,30.00,WNW,292,2.8,16.1,46,0.00,,,0.00,Rainwise IP-100,2013-01-21 06:37:00,
2013-01-21 01:42:00,29.2,11.0,30.00,WNW,292,9.3,13.1,46,0.00,,,0.00,Rainwise IP-100,2013-01-21 06:42:00,
2013-01-21 01:47:00,29.2,14.0,30.00,NNW,337,6.8,9.6,47,0.00,,,0.00,Rainwise IP-100,2013-01-21 06:47:00,
2013-01-21 01:52:00,29.2,14.0,30.00,WNW,292,8.6,14.0,47,0.00,,,0.00,Rainwise IP-100,2013-01-21 06:52:00,
2013-01-21 01:57:00,29.1,11.0,30.01,NNW,337,1.9,11.4,46,0.00,,,0.00,Rainwise IP-100,2013-01-21 06:57:00,
2013-01-21 02:02:00,29.1,11.0,30.01,WNW,292,18.4,18.4,46,0.00,,,0.00,Rainwise IP-100,2013-01-21 07:02:00,
2013-01-21 02:07:00,29.2,11.0,30.01,WNW,292,7.7,19.1,46,0.00,,,0.00,Rainwise IP-100,2013-01-21 07:07:00,
2013-01-21 02:12:00,29.2,11.0,30.01,WNW,292,5.1,13.3,46,0.00,,,0.00,Rainwise IP-100,2013-01-21 07:12:00,
2013-01-21 02:17:00,29.1,11.0,30.02,WNW,292,9.1,11.0,45,0.00,,,0.00,Rainwise IP-100,2013-01-21 07:17:00,
2013-01-21 02:22:00,29.1,11.0,30.02,WNW,292,10.5,19.4,45,0.00,,,0.00,Rainwise IP-100,2013-01-21 07:22:00,
2013-01-21 02:27:00,29.1,11.0,30.02,WNW,292,7.2,16.8,45,0.00,,,0.00,Rainwise IP-100,2013-01-21 07:27:00,
2013-01-21 02:32:00,29.0,11.0,30.02,WNW,292,8.9,16.8,45,0.00,,,0.00,Rainwise IP-100,2013-01-21 07:32:00,
2013-01-21 02:37:00,28.9,11.0,30.02,NW,315,3.7,13.8,45,0.00,,,0.00,Rainwise IP-100,2013-01-21 07:37:00,
2013-01-21 02:42:00,28.9,11.0,30.02,WNW,292,8.9,14.5,45,0.00,,,0.00,Rainwise IP-100,2013-01-21 07:42:00,
2013-01-21 02:47:00,28.8,11.0,30.02,WNW,292,6.5,13.8,45,0.00,,,0.00,Rainwise IP-100,2013-01-21 07:47:00,
2013-01-21 02:52:00,28.7,11.0,30.03,NNW,337,3.5,14.0,46,0.00,,,0.00,Rainwise IP-100,2013-01-21 07:52:00,
2013-01-21 02:57:00,28.7,11.0,30.03,NNW,337,6.1,14.2,46,0.00,,,0.00,Rainwise IP-100,2013-01-21 07:57:00,
2013-01-21 03:02:00,28.6,11.0,30.03,WSW,247,6.1,16.6,46,0.00,,,0.00,Rainwise IP-100,2013-01-21 08:02:00,
2013-01-21 03:07:00,28.6,11.0,30.03,WNW,292,7.9,16.3,45,0.00,,,0.00,Rainwise IP-100,2013-01-21 08:07:00,
2013-01-21 03:12:00,28.8,11.0,30.03,NNW,337,3.3,22.9,44,0.00,,,0.00,Rainwise IP-100,2013-01-21 08:12:00,
2013-01-21 03:18:00,28.7,11.0,30.03,West,270,11.7,15.2,44,0.00,,,0.00,Rainwise IP-100,2013-01-21 08:18:00,
2013-01-21 03:23:00,28.5,11.0,30.03,NW,315,6.3,14.9,44,0.00,,,0.00,Rainwise IP-100,2013-01-21 08:23:00,
2013-01-21 03:28:00,28.3,11.0,30.03,WNW,292,6.1,11.0,45,0.00,,,0.00,Rainwise IP-100,2013-01-21 08:28:00,
2013-01-21 03:33:00,28.3,11.0,30.04,WNW,292,9.8,12.8,45,0.00,,,0.00,Rainwise IP-100,2013-01-21 08:33:00,
2013-01-21 03:38:00,28.2,11.0,30.04,WNW,292,6.3,11.9,46,0.00,,,0.00,Rainwise IP-100,2013-01-21 08:38:00,
2013-01-21 03:43:00,28.2,11.0,30.04,WNW,292,11.7,12.4,46,0.00,,,0.00,Rainwise IP-100,2013-01-21 08:43:00,
2013-01-21 03:48:00,28.1,11.0,30.04,WNW,292,4.4,14.9,47,0.00,,,0.00,Rainwise IP-100,2013-01-21 08:48:00,
2013-01-21 03:53:00,28.1,11.0,30.04,NNW,337,4.0,17.5,47,0.00,,,0.00,Rainwise IP-100,2013-01-21 08:53:00,
2013-01-21 03:58:00,28.1,11.0,30.05,NNW,337,1.2,15.9,47,0.00,,,0.00,Rainwise IP-100,2013-01-21 08:58:00,
2013-01-21 04:03:00,28.0,11.0,30.04,NNW,337,4.4,10.7,48,0.00,,,0.00,Rainwise IP-100,2013-01-21 09:03:00,
2013-01-21 04:09:00,27.8,11.0,30.05,NNW,337,4.0,11.4,48,0.00,,,0.00,Rainwise IP-100,2013-01-21 09:09:00,
2013-01-21 04:14:00,27.7,11.0,30.05,NW,315,5.6,9.3,49,0.00,,,0.00,Rainwise IP-100,2013-01-21 09:14:00,
2013-01-21 04:19:00,27.6,14.0,30.05,WNW,292,6.5,12.8,50,0.00,,,0.00,Rainwise IP-100,2013-01-21 09:19:00,
2013-01-21 04:24:00,27.4,14.0,30.05,WSW,247,2.6,10.0,50,0.00,,,0.00,Rainwise IP-100,2013-01-21 09:24:00,
2013-01-21 04:29:00,27.3,14.0,30.05,NNW,337,4.7,10.0,50,0.00,,,0.00,Rainwise IP-100,2013-01-21 09:29:00,
2013-01-21 04:34:00,27.3,14.0,30.05,WNW,292,7.2,11.0,50,0.00,,,0.00,Rainwise IP-100,2013-01-21 09:34:00,
2013-01-21 04:39:00,27.2,14.0,30.06,NW,315,7.9,11.4,51,0.00,,,0.00,Rainwise IP-100,2013-01-21 09:39:00,
2013-01-21 04:44:00,27.1,14.0,30.06,WNW,292,8.6,10.7,50,0.00,,,0.00,Rainwise IP-100,2013-01-21 09:44:00,
2013-01-21 04:49:00,27.0,14.0,30.05,WNW,292,7.9,13.1,50,0.00,,,0.00,Rainwise IP-100,2013-01-21 09:49:00,
2013-01-21 04:54:00,26.9,14.0,30.06,WNW,292,6.8,8.9,50,0.00,,,0.00,Rainwise IP-100,2013-01-21 09:54:00,
2013-01-21 04:59:00,26.7,14.0,30.06,NNW,337,5.1,13.5,51,0.00,,,0.00,Rainwise IP-100,2013-01-21 09:59:00,
2013-01-21 05:04:00,26.6,14.0,30.06,NW,315,1.4,8.9,52,0.00,,,0.00,Rainwise IP-100,2013-01-21 10:04:00,
2013-01-21 05:09:00,26.5,14.0,30.06,NW,315,3.7,6.5,53,0.00,,,0.00,Rainwise IP-100,2013-01-21 10:09:00,
2013-01-21 05:14:00,26.4,11.0,30.07,NNW,337,2.6,9.8,53,0.00,,,0.00,Rainwise IP-100,2013-01-21 10:14:00,
2013-01-21 05:19:00,26.2,11.0,30.07,WNW,292,1.9,11.2,53,0.00,,,0.00,Rainwise IP-100,2013-01-21 10:19:00,
2013-01-21 05:24:00,26.2,11.0,30.07,NNW,337,4.0,13.5,53,0.00,,,0.00,Rainwise IP-100,2013-01-21 10:24:00,
2013-01-21 05:29:00,26.1,11.0,30.07,WNW,292,7.9,10.5,53,0.00,,,0.00,Rainwise IP-100,2013-01-21 10:29:00,
2013-01-21 05:34:00,26.0,11.0,30.07,WNW,292,8.6,14.7,52,0.00,,,0.00,Rainwise IP-100,2013-01-21 10:34:00,
2013-01-21 05:39:00,26.0,11.0,30.07,WSW,247,1.2,12.6,52,0.00,,,0.00,Rainwise IP-100,2013-01-21 10:39:00,
2013-01-21 05:44:00,25.9,11.0,30.07,WNW,292,1.4,9.1,53,0.00,,,0.00,Rainwise IP-100,2013-01-21 10:44:00,
2013-01-21 05:49:00,25.9,11.0,30.08,WNW,292,5.1,12.8,53,0.00,,,0.00,Rainwise IP-100,2013-01-21 10:49:00,
2013-01-21 05:54:00,25.8,11.0,30.08,NNW,337,3.3,10.3,53,0.00,,,0.00,Rainwise IP-100,2013-01-21 10:54:00,
2013-01-21 05:59:00,25.7,11.0,30.08,NNW,337,7.7,11.9,53,0.00,,,0.00,Rainwise IP-100,2013-01-21 10:59:00,
2013-01-21 06:04:00,25.6,11.0,30.08,WNW,292,7.2,12.1,53,0.00,,,0.00,Rainwise IP-100,2013-01-21 11:04:00,
2013-01-21 06:09:00,25.5,11.0,30.08,WNW,292,8.2,11.4,52,0.00,,,0.00,Rainwise IP-100,2013-01-21 11:09:00,
2013-01-21 06:14:00,25.4,11.0,30.09,NW,315,3.3,10.5,52,0.00,,,0.00,Rainwise IP-100,2013-01-21 11:14:00,
2013-01-21 06:19:00,25.3,11.0,30.09,WNW,292,4.2,10.0,51,0.00,,,0.00,Rainwise IP-100,2013-01-21 11:19:00,
2013-01-21 06:24:00,25.2,11.0,30.09,WNW,292,3.3,9.1,51,0.00,,,0.00,Rainwise IP-100,2013-01-21 11:24:00,
2013-01-21 06:29:00,25.2,11.0,30.09,WNW,292,6.1,14.7,51,0.00,,,0.00,Rainwise IP-100,2013-01-21 11:29:00,
2013-01-21 06:34:00,25.2,11.0,30.09,NNW,337,9.1,16.3,51,0.00,,,0.00,Rainwise IP-100,2013-01-21 11:34:00,
2013-01-21 06:39:00,25.0,11.0,30.10,NNW,337,7.7,14.9,51,0.00,,,0.00,Rainwise IP-100,2013-01-21 11:39:00,
2013-01-21 06:44:00,24.9,11.0,30.10,WNW,292,4.4,10.5,51,0.00,,,0.00,Rainwise IP-100,2013-01-21 11:44:00,
2013-01-21 06:50:00,24.7,11.0,30.10,NNW,337,11.7,11.7,50,0.00,,,0.00,Rainwise IP-100,2013-01-21 11:50:00,
2013-01-21 06:55:00,24.7,11.0,30.10,WNW,292,4.4,13.3,50,0.00,,,0.00,Rainwise IP-100,2013-01-21 11:55:00,
2013-01-21 07:00:00,24.7,11.0,30.10,WNW,292,7.9,13.1,49,0.00,,,0.00,Rainwise IP-100,2013-01-21 12:00:00,
2013-01-21 07:05:00,24.6,11.0,30.10,NW,315,8.6,11.9,48,0.00,,,0.00,Rainwise IP-100,2013-01-21 12:05:00,
2013-01-21 07:10:00,24.6,11.0,30.10,NNW,337,5.1,10.3,48,0.00,,,0.00,Rainwise IP-100,2013-01-21 12:10:00,
2013-01-21 07:15:00,24.5,11.0,30.10,NNW,337,1.4,9.1,48,0.00,,,0.00,Rainwise IP-100,2013-01-21 12:15:00,
2013-01-21 07:20:00,24.4,8.0,30.10,NNW,337,4.7,7.2,48,0.00,,,0.00,Rainwise IP-100,2013-01-21 12:20:00,
2013-01-21 07:25:00,24.4,8.0,30.11,NW,315,4.0,8.6,48,0.00,,,0.00,Rainwise IP-100,2013-01-21 12:25:00,
2013-01-21 07:30:00,24.4,8.0,30.11,NNW,337,1.2,8.4,48,0.00,,,0.00,Rainwise IP-100,2013-01-21 12:30:00,
2013-01-21 07:35:00,24.3,8.0,30.12,NNW,337,0.0,8.2,48,0.00,,,0.00,Rainwise IP-100,2013-01-21 12:35:00,
2013-01-21 07:40:00,24.3,8.0,30.11,WNW,292,4.9,6.8,48,0.00,,,0.00,Rainwise IP-100,2013-01-21 12:40:00,
2013-01-21 07:45:00,24.4,8.0,30.12,NW,315,4.2,8.2,48,0.00,,,0.00,Rainwise IP-100,2013-01-21 12:45:00,
2013-01-21 07:50:00,24.5,11.0,30.12,WNW,292,4.0,9.8,48,0.00,,,0.00,Rainwise IP-100,2013-01-21 12:50:00,
2013-01-21 07:55:00,24.5,11.0,30.13,WNW,292,5.8,8.2,47,0.00,,,0.00,Rainwise IP-100,2013-01-21 12:55:00,
2013-01-21 08:00:00,24.5,11.0,30.13,WNW,292,6.8,10.3,47,0.00,,,0.00,Rainwise IP-100,2013-01-21 13:00:00,
2013-01-21 08:05:00,24.7,11.0,30.14,North,360,1.9,9.3,47,0.00,,,0.00,Rainwise IP-100,2013-01-21 13:05:00,
2013-01-21 08:10:00,25.0,11.0,30.14,WNW,292,1.9,8.6,47,0.00,,,0.00,Rainwise IP-100,2013-01-21 13:10:00,
2013-01-21 08:15:00,25.2,8.0,30.14,WNW,292,5.6,5.6,46,0.00,,,0.00,Rainwise IP-100,2013-01-21 13:15:00,
2013-01-21 08:20:00,25.3,8.0,30.14,WNW,292,4.0,8.2,46,0.00,,,0.00,Rainwise IP-100,2013-01-21 13:20:00,
2013-01-21 08:25:00,25.4,8.0,30.14,WNW,292,5.1,8.2,46,0.00,,,0.00,Rainwise IP-100,2013-01-21 13:25:00,
2013-01-21 08:30:00,25.6,8.0,30.14,WNW,292,5.4,7.0,46,0.00,,,0.00,Rainwise IP-100,2013-01-21 13:30:00,
2013-01-21 08:35:00,25.7,8.0,30.14,NW,315,3.0,9.6,46,0.00,,,0.00,Rainwise IP-100,2013-01-21 13:35:00,
2013-01-21 08:40:00,25.9,8.0,30.14,NW,315,5.8,11.2,46,0.00,,,0.00,Rainwise IP-100,2013-01-21 13:40:00,
2013-01-21 08:45:00,26.1,8.0,30.14,WNW,292,8.9,9.6,45,0.00,,,0.00,Rainwise IP-100,2013-01-21 13:45:00,
2013-01-21 08:50:00,26.2,8.0,30.14,WNW,292,6.8,12.1,45,0.00,,,0.00,Rainwise IP-100,2013-01-21 13:50:00,
2013-01-21 08:55:00,26.1,8.0,30.14,NNW,337,4.9,14.2,44,0.00,,,0.00,Rainwise IP-100,2013-01-21 13:55:00,
2013-01-21 09:00:00,26.1,8.0,30.13,WNW,292,7.2,15.2,44,0.00,,,0.00,Rainwise IP-100,2013-01-21 14:00:00,
2013-01-21 09:05:00,26.3,8.0,30.14,NNW,337,6.3,12.8,44,0.00,,,0.00,Rainwise IP-100,2013-01-21 14:05:00,
2013-01-21 09:10:00,26.3,8.0,30.13,WNW,292,8.2,11.2,44,0.00,,,0.00,Rainwise IP-100,2013-01-21 14:10:00,
2013-01-21 09:15:00,26.3,8.0,30.14,WNW,292,8.2,13.8,44,0.00,,,0.00,Rainwise IP-100,2013-01-21 14:15:00,
2013-01-21 09:20:00,26.3,8.0,30.14,WNW,292,2.6,11.2,45,0.00,,,0.00,Rainwise IP-100,2013-01-21 14:20:00,
2013-01-21 09:25:00,26.4,8.0,30.13,WNW,292,4.0,15.4,44,0.00,,,0.00,Rainwise IP-100,2013-01-21 14:25:00,
2013-01-21 09:30:00,26.5,8.0,30.13,WNW,292,3.5,10.0,43,0.00,,,0.00,Rainwise IP-100,2013-01-21 14:30:00,
2013-01-21 09:35:00,26.6,8.0,30.13,WNW,292,2.8,8.6,43,0.00,,,0.00,Rainwise IP-100,2013-01-21 14:35:00,
2013-01-21 09:40:00,27.0,8.0,30.13,NNW,337,4.2,7.2,42,0.00,,,0.00,Rainwise IP-100,2013-01-21 14:40:00,
2013-01-21 09:45:00,27.2,8.0,30.13,WNW,292,6.8,11.7,42,0.00,,,0.00,Rainwise IP-100,2013-01-21 14:45:00,
2013-01-21 09:50:00,27.0,8.0,30.13,NW,315,4.7,10.3,42,0.00,,,0.00,Rainwise IP-100,2013-01-21 14:50:00,
2013-01-21 09:55:00,26.8,8.0,30.13,NW,315,8.2,11.9,42,0.00,,,0.00,Rainwise IP-100,2013-01-21 14:55:00,
2013-01-21 10:00:00,27.1,8.0,30.13,NE,45,2.6,12.4,43,0.00,,,0.00,Rainwise IP-100,2013-01-21 15:00:00,
2013-01-21 10:05:00,27.1,11.0,30.13,WNW,292,7.5,11.7,44,0.00,,,0.00,Rainwise IP-100,2013-01-21 15:05:00,
2013-01-21 10:10:00,26.9,11.0,30.13,WNW,292,7.0,8.9,44,0.00,,,0.00,Rainwise IP-100,2013-01-21 15:10:00,
2013-01-21 10:15:00,26.9,8.0,30.13,NNW,337,4.2,10.5,43,0.00,,,0.00,Rainwise IP-100,2013-01-21 15:15:00,
2013-01-21 10:20:00,26.9,8.0,30.13,WNW,292,8.4,10.7,43,0.00,,,0.00,Rainwise IP-100,2013-01-21 15:20:00,
2013-01-21 10:25:00,26.9,8.0,30.14,NW,315,7.7,13.1,43,0.00,,,0.00,Rainwise IP-100,2013-01-21 15:25:00,
2013-01-21 10:30:00,26.9,8.0,30.13,NNW,337,4.7,11.9,43,0.00,,,0.00,Rainwise IP-100,2013-01-21 15:30:00,
2013-01-21 10:35:00,27.0,8.0,30.13,WNW,292,5.4,10.7,43,0.00,,,0.00,Rainwise IP-100,2013-01-21 15:35:00,
2013-01-21 10:40:00,27.3,11.0,30.13,WNW,292,2.6,7.5,44,0.00,,,0.00,Rainwise IP-100,2013-01-21 15:40:00,
2013-01-21 10:45:00,27.2,11.0,30.12,WNW,292,0.0,12.8,44,0.00,,,0.00,Rainwise IP-100,2013-01-21 15:45:00,
2013-01-21 10:50:00,27.3,8.0,30.12,NW,315,6.5,13.8,43,0.00,,,0.00,Rainwise IP-100,2013-01-21 15:50:00,
2013-01-21 10:55:00,27.4,8.0,30.12,WNW,292,1.4,11.0,43,0.00,,,0.00,Rainwise IP-100,2013-01-21 15:55:00,
2013-01-21 11:00:00,27.4,8.0,30.11,WNW,292,7.5,9.3,43,0.00,,,0.00,Rainwise IP-100,2013-01-21 16:00:00,
2013-01-21 11:05:00,27.4,8.0,30.11,NW,315,4.9,12.1,42,0.00,,,0.00,Rainwise IP-100,2013-01-21 16:05:00,
2013-01-21 11:10:00,27.4,8.0,30.10,NW,315,2.3,10.0,41,0.00,,,0.00,Rainwise IP-100,2013-01-21 16:10:00,
2013-01-21 11:15:00,27.9,8.0,30.10,WNW,292,1.9,4.9,41,0.00,,,0.00,Rainwise IP-100,2013-01-21 16:15:00,
2013-01-21 11:20:00,28.2,8.0,30.10,NW,315,4.2,7.2,42,0.00,,,0.00,Rainwise IP-100,2013-01-21 16:20:00,
2013-01-21 11:25:00,28.3,8.0,30.09,WNW,292,4.2,11.9,42,0.00,,,0.00,Rainwise IP-100,2013-01-21 16:25:00,
2013-01-21 11:30:00,28.3,8.0,30.09,WNW,292,5.8,11.9,41,0.00,,,0.00,Rainwise IP-100,2013-01-21 16:30:00,
2013-01-21 11:35:00,28.2,8.0,30.08,NW,315,4.7,9.3,41,0.00,,,0.00,Rainwise IP-100,2013-01-21 16:35:00,
2013-01-21 11:40:00,28.5,11.0,30.08,WSW,247,3.3,5.6,42,0.00,,,0.00,Rainwise IP-100,2013-01-21 16:40:00,
2013-01-21 11:45:00,28.9,11.0,30.08,WNW,292,3.0,6.5,41,0.00,,,0.00,Rainwise IP-100,2013-01-21 16:45:00,
2013-01-21 11:50:00,28.9,11.0,30.08,NW,315,2.8,7.0,41,0.00,,,0.00,Rainwise IP-100,2013-01-21 16:50:00,
2013-01-21 11:55:00,29.1,11.0,30.07,NW,315,8.4,9.8,41,0.00,,,0.00,Rainwise IP-100,2013-01-21 16:55:00,
2013-01-21 12:00:00,29.1,8.0,30.08,WNW,292,3.3,8.6,40,0.00,,,0.00,Rainwise IP-100,2013-01-21 17:00:00,
2013-01-21 12:05:00,28.8,8.0,30.07,WNW,292,6.5,9.8,40,0.00,,,0.00,Rainwise IP-100,2013-01-21 17:05:00,
2013-01-21 12:10:00,29.0,11.0,30.06,WNW,292,6.3,9.8,41,0.00,,,0.00,Rainwise IP-100,2013-01-21 17:10:00,
2013-01-21 12:15:00,28.9,11.0,30.06,WSW,247,5.1,8.9,41,0.00,,,0.00,Rainwise IP-100,2013-01-21 17:15:00,
2013-01-21 12:20:00,28.8,11.0,30.06,WSW,247,4.4,7.5,41,0.00,,,0.00,Rainwise IP-100,2013-01-21 17:20:00,
2013-01-21 12:25:00,29.3,11.0,30.06,SSE,157,4.2,5.6,41,0.00,,,0.00,Rainwise IP-100,2013-01-21 17:25:00,
2013-01-21 12:30:00,29.9,11.0,30.05,WNW,292,5.6,6.8,41,0.00,,,0.00,Rainwise IP-100,2013-01-21 17:30:00,
2013-01-21 12:35:00,29.8,11.0,30.05,WNW,292,8.4,8.6,41,0.00,,,0.00,Rainwise IP-100,2013-01-21 17:35:00,
2013-01-21 12:40:00,29.4,11.0,30.06,WNW,292,7.0,8.4,42,0.00,,,0.00,Rainwise IP-100,2013-01-21 17:40:00,
2013-01-21 12:45:00,29.4,11.0,30.05,WNW,292,1.2,7.5,43,0.00,,,0.00,Rainwise IP-100,2013-01-21 17:45:00,
2013-01-21 12:50:00,29.7,11.0,30.05,North,360,3.0,6.8,43,0.00,,,0.00,Rainwise IP-100,2013-01-21 17:50:00,
2013-01-21 12:55:00,29.7,11.0,30.05,West,270,1.9,6.3,43,0.00,,,0.00,Rainwise IP-100,2013-01-21 17:55:00,
2013-01-21 13:00:00,29.6,11.0,30.04,WSW,247,0.0,6.8,43,0.00,,,0.00,Rainwise IP-100,2013-01-21 18:00:00,
2013-01-21 13:05:00,29.7,11.0,30.05,WNW,292,6.5,7.2,43,0.00,,,0.00,Rainwise IP-100,2013-01-21 18:05:00,
2013-01-21 13:10:00,29.8,11.0,30.04,SSW,202,1.6,7.9,44,0.00,,,0.00,Rainwise IP-100,2013-01-21 18:10:00,
2013-01-21 13:15:00,29.9,11.0,30.04,WNW,292,0.0,6.3,44,0.00,,,0.00,Rainwise IP-100,2013-01-21 18:15:00,
2013-01-21 13:20:00,30.0,11.0,30.04,SW,225,6.3,9.1,44,0.00,,,0.00,Rainwise IP-100,2013-01-21 18:20:00,
2013-01-21 13:25:00,29.9,11.0,30.04,SE,135,2.6,7.5,43,0.00,,,0.00,Rainwise IP-100,2013-01-21 18:25:00,
2013-01-21 13:30:00,30.0,11.0,30.03,West,270,4.0,6.5,43,0.00,,,0.00,Rainwise IP-100,2013-01-21 18:30:00,
2013-01-21 13:35:00,29.9,11.0,30.03,SW,225,1.4,5.6,44,0.00,,,0.00,Rainwise IP-100,2013-01-21 18:35:00,
2013-01-21 13:40:00,29.9,11.0,30.03,SSW,202,1.6,5.1,44,0.00,,,0.00,Rainwise IP-100,2013-01-21 18:40:00,
2013-01-21 13:45:00,29.9,11.0,30.03,SSW,202,4.7,7.0,44,0.00,,,0.00,Rainwise IP-100,2013-01-21 18:45:00,
2013-01-21 13:50:00,29.7,14.0,30.03,SSE,157,3.5,5.8,45,0.00,,,0.00,Rainwise IP-100,2013-01-21 18:50:00,
2013-01-21 13:55:00,29.6,14.0,30.03,SSE,157,0.0,7.2,45,0.00,,,0.00,Rainwise IP-100,2013-01-21 18:55:00,
2013-01-21 14:00:00,29.7,14.0,30.02,SSW,202,2.3,4.2,46,0.00,,,0.00,Rainwise IP-100,2013-01-21 19:00:00,
2013-01-21 14:05:00,29.7,14.0,30.02,SSW,202,2.8,5.8,46,0.00,,,0.00,Rainwise IP-100,2013-01-21 19:05:00,
2013-01-21 14:10:00,29.4,14.0,30.02,SE,135,2.6,5.4,47,0.00,,,0.00,Rainwise IP-100,2013-01-21 19:10:00,
2013-01-21 14:15:00,29.3,14.0,30.03,SSE,157,0.0,6.8,47,0.00,,,0.00,Rainwise IP-100,2013-01-21 19:15:00,
2013-01-21 14:20:00,29.4,14.0,30.03,SW,225,2.3,6.8,48,0.00,,,0.00,Rainwise IP-100,2013-01-21 19:20:00,
2013-01-21 14:25:00,29.5,14.0,30.03,SE,135,0.0,4.7,48,0.00,,,0.00,Rainwise IP-100,2013-01-21 19:25:00,
2013-01-21 14:30:00,29.5,14.0,30.02,SE,135,1.6,7.5,49,0.00,,,0.00,Rainwise IP-100,2013-01-21 19:30:00,
2013-01-21 14:35:00,29.3,14.0,30.03,SSE,157,0.0,4.7,48,0.00,,,0.00,Rainwise IP-100,2013-01-21 19:35:00,
2013-01-21 14:40:00,29.2,14.0,30.03,SE,135,1.6,5.6,49,0.00,,,0.00,Rainwise IP-100,2013-01-21 19:40:00,
2013-01-21 14:45:00,29.2,14.0,30.02,East,90,3.5,4.4,49,0.00,,,0.00,Rainwise IP-100,2013-01-21 19:45:00,
2013-01-21 14:50:00,29.0,14.0,30.02,West,270,0.0,3.5,50,0.00,,,0.00,Rainwise IP-100,2013-01-21 19:50:00,
2013-01-21 14:55:00,28.9,14.0,30.02,ESE,112,2.8,7.7,50,0.00,,,0.00,Rainwise IP-100,2013-01-21 19:55:00,
2013-01-21 15:00:00,28.9,14.0,30.01,SE,135,3.3,7.2,50,0.00,,,0.00,Rainwise IP-100,2013-01-21 20:00:00,
2013-01-21 15:05:00,28.8,14.0,30.01,South,180,4.9,5.6,51,0.00,,,0.00,Rainwise IP-100,2013-01-21 20:05:00,
2013-01-21 15:10:00,28.8,14.0,30.01,SSE,157,0.0,6.1,51,0.00,,,0.00,Rainwise IP-100,2013-01-21 20:10:00,
2013-01-21 15:15:00,28.9,14.0,30.01,SSE,157,1.2,3.7,51,0.00,,,0.00,Rainwise IP-100,2013-01-21 20:15:00,
2013-01-21 15:20:00,29.0,14.0,30.01,SSW,202,0.0,3.0,51,0.00,,,0.00,Rainwise IP-100,2013-01-21 20:20:00,
2013-01-21 15:25:00,28.9,14.0,30.01,South,180,2.8,4.9,52,0.00,,,0.00,Rainwise IP-100,2013-01-21 20:25:00,
2013-01-21 15:30:00,28.8,14.0,30.01,SW,225,0.0,5.1,53,0.00,,,0.00,Rainwise IP-100,2013-01-21 20:30:00,
2013-01-21 15:35:00,28.8,16.0,30.01,ESE,112,2.6,3.5,54,0.00,,,0.00,Rainwise IP-100,2013-01-21 20:35:00,
2013-01-21 15:40:00,28.7,16.0,30.00,SE,135,2.1,5.6,55,0.00,,,0.00,Rainwise IP-100,2013-01-21 20:40:00,
2013-01-21 15:45:00,28.5,16.0,30.00,SE,135,1.9,2.8,55,0.00,,,0.00,Rainwise IP-100,2013-01-21 20:45:00,
2013-01-21 15:50:00,28.5,16.0,30.00,SSE,157,0.0,3.3,55,0.00,,,0.00,Rainwise IP-100,2013-01-21 20:50:00,
2013-01-21 15:55:00,28.6,16.0,30.00,SSE,157,1.2,2.8,55,0.00,,,0.00,Rainwise IP-100,2013-01-21 20:55:00,
2013-01-21 16:00:00,28.7,16.0,29.99,SSE,157,5.1,6.3,57,0.00,,,0.00,Rainwise IP-100,2013-01-21 21:00:00,
2013-01-21 16:05:00,28.5,16.0,29.99,SSW,202,0.0,6.3,59,0.00,,,0.00,Rainwise IP-100,2013-01-21 21:05:00,
2013-01-21 16:10:00,28.4,16.0,29.99,SSE,157,2.6,4.0,62,0.00,,,0.00,Rainwise IP-100,2013-01-21 21:10:00,
2013-01-21 16:15:00,28.4,16.0,29.99,SSW,202,0.0,4.0,63,0.00,,,0.00,Rainwise IP-100,2013-01-21 21:15:00,
2013-01-21 16:20:00,28.4,18.0,29.99,South,180,0.0,3.5,64,0.00,,,0.00,Rainwise IP-100,2013-01-21 21:20:00,
2013-01-21 16:25:00,28.4,18.0,29.99,WSW,247,0.0,0.0,65,0.00,,,0.00,Rainwise IP-100,2013-01-21 21:25:00,
2013-01-21 16:30:00,28.4,18.0,29.98,WSW,247,2.1,5.8,66,0.00,,,0.00,Rainwise IP-100,2013-01-21 21:30:00,
2013-01-21 16:35:00,28.4,18.0,29.98,South,180,0.0,5.1,67,0.00,,,0.00,Rainwise IP-100,2013-01-21 21:35:00,
2013-01-21 16:40:00,28.2,18.0,29.98,East,90,2.1,4.2,69,0.00,,,0.00,Rainwise IP-100,2013-01-21 21:40:00,
2013-01-21 16:45:00,28.0,21.0,29.98,SSE,157,2.1,4.4,70,0.00,,,0.00,Rainwise IP-100,2013-01-21 21:45:00,
2013-01-21 16:50:00,27.8,21.0,29.98,SSE,157,3.7,5.4,71,0.00,,,0.00,Rainwise IP-100,2013-01-21 21:50:00,
2013-01-21 16:55:00,27.7,21.0,29.98,SSE,157,0.0,4.2,72,0.00,,,0.00,Rainwise IP-100,2013-01-21 21:55:00,
2013-01-21 17:00:00,27.7,21.0,29.97,SSE,157,2.3,4.7,73,0.00,,,0.00,Rainwise IP-100,2013-01-21 22:00:00,
2013-01-21 17:05:00,27.6,21.0,29.97,ESE,112,2.3,5.1,75,0.00,,,0.00,Rainwise IP-100,2013-01-21 22:05:00,
2013-01-21 17:10:00,27.4,23.0,29.97,SSE,157,0.0,5.6,77,0.00,,,0.00,Rainwise IP-100,2013-01-21 22:10:00,
2013-01-21 17:15:00,27.2,23.0,29.97,South,180,2.1,5.4,79,0.00,,,0.00,Rainwise IP-100,2013-01-21 22:15:00,
2013-01-21 17:20:00,27.1,23.0,29.97,SE,135,2.3,5.1,81,0.00,,,0.00,Rainwise IP-100,2013-01-21 22:20:00,
2013-01-21 17:25:00,27.0,23.0,29.96,SE,135,0.0,3.3,82,0.00,,,0.00,Rainwise IP-100,2013-01-21 22:25:00,
2013-01-21 17:30:00,27.0,23.0,29.95,SE,135,0.0,3.5,83,0.00,,,0.00,Rainwise IP-100,2013-01-21 22:30:00,
2013-01-21 17:35:00,27.0,24.0,29.95,ESE,112,3.5,3.5,84,0.00,,,0.00,Rainwise IP-100,2013-01-21 22:35:00,
2013-01-21 17:40:00,26.9,24.0,29.95,SSE,157,1.6,3.5,85,0.00,,,0.00,Rainwise IP-100,2013-01-21 22:40:00,
2013-01-21 17:45:00,26.9,24.0,29.95,SSE,157,0.0,2.3,86,0.00,,,0.00,Rainwise IP-100,2013-01-21 22:45:00,
2013-01-21 17:50:00,26.9,24.0,29.95,SSE,157,2.1,2.1,87,0.00,,,0.00,Rainwise IP-100,2013-01-21 22:50:00,
2013-01-21 17:55:00,26.9,24.0,29.95,SE,135,0.0,2.3,88,0.00,,,0.00,Rainwise IP-100,2013-01-21 22:55:00,
2013-01-21 18:00:00,26.9,24.0,29.95,SE,135,2.8,2.8,88,0.00,,,0.00,Rainwise IP-100,2013-01-21 23:00:00,
2013-01-21 18:05:00,27.0,24.0,29.95,SSE,157,0.0,3.0,89,0.00,,,0.00,Rainwise IP-100,2013-01-21 23:05:00,
2013-01-21 18:10:00,27.1,24.0,29.95,SE,135,1.2,3.3,89,0.00,,,0.00,Rainwise IP-100,2013-01-21 23:10:00,
2013-01-21 18:15:00,27.2,26.0,29.95,SE,135,0.0,3.0,90,0.00,,,0.00,Rainwise IP-100,2013-01-21 23:15:00,
2013-01-21 18:20:00,27.3,26.0,29.95,SSE,157,0.0,2.6,90,0.00,,,0.00,Rainwise IP-100,2013-01-21 23:20:00,
2013-01-21 18:25:00,27.4,26.0,29.95,SSE,157,0.0,4.4,91,0.00,,,0.00,Rainwise IP-100,2013-01-21 23:25:00,
2013-01-21 18:30:00,27.6,26.0,29.95,SSE,157,1.9,2.6,91,0.00,,,0.00,Rainwise IP-100,2013-01-21 23:30:00,
2013-01-21 18:35:00,27.9,26.0,29.95,SSE,157,0.0,2.1,92,0.00,,,0.00,Rainwise IP-100,2013-01-21 23:35:00,
2013-01-21 18:40:00,28.0,26.0,29.94,SSE,157,1.2,1.9,92,0.00,,,0.00,Rainwise IP-100,2013-01-21 23:40:00,
2013-01-21 18:45:00,28.1,26.0,29.94,SE,135,0.0,3.3,92,0.00,,,0.00,Rainwise IP-100,2013-01-21 23:45:00,
2013-01-21 18:50:00,28.2,26.0,29.94,SE,135,0.0,3.5,93,0.00,,,0.00,Rainwise IP-100,2013-01-21 23:50:00,
2013-01-21 18:55:00,28.3,26.0,29.94,SE,135,1.2,3.0,93,0.00,,,0.00,Rainwise IP-100,2013-01-21 23:55:00,
2013-01-21 19:00:00,28.4,26.0,29.95,NW,315,1.6,3.7,93,0.00,,,0.00,Rainwise IP-100,2013-01-22 00:00:00,
2013-01-21 19:05:00,28.7,28.0,29.95,NW,315,0.0,1.6,93,0.00,,,0.00,Rainwise IP-100,2013-01-22 00:05:00,
2013-01-21 19:10:00,28.8,28.0,29.94,NW,315,0.0,0.0,94,0.00,,,0.00,Rainwise IP-100,2013-01-22 00:10:00,
2013-01-21 19:15:00,28.9,28.0,29.94,NW,315,1.2,2.3,94,0.00,,,0.00,Rainwise IP-100,2013-01-22 00:15:00,
2013-01-21 19:20:00,28.9,28.0,29.94,East,90,2.3,2.3,94,0.00,,,0.00,Rainwise IP-100,2013-01-22 00:20:00,
2013-01-21 19:25:00,28.9,28.0,29.93,East,90,3.5,4.0,94,0.00,,,0.00,Rainwise IP-100,2013-01-22 00:25:00,
2013-01-21 19:30:00,29.0,28.0,29.93,East,90,0.0,3.7,94,0.00,,,0.00,Rainwise IP-100,2013-01-22 00:30:00,
2013-01-21 19:35:00,29.1,28.0,29.93,East,90,0.0,1.2,94,0.00,,,0.00,Rainwise IP-100,2013-01-22 00:35:00,
2013-01-21 19:40:00,29.1,28.0,29.92,East,90,0.0,0.0,95,0.00,,,0.00,Rainwise IP-100,2013-01-22 00:40:00,
2013-01-21 19:45:00,29.2,28.0,29.92,NNW,337,2.3,0.0,95,0.00,,,0.00,Rainwise IP-100,2013-01-22 00:45:00,
2013-01-21 19:50:00,29.2,28.0,29.92,NNW,337,0.0,2.3,95,0.00,,,0.00,Rainwise IP-100,2013-01-22 00:50:00,
2013-01-21 19:55:00,29.2,28.0,29.92,NNW,337,0.0,1.6,95,0.00,,,0.00,Rainwise IP-100,2013-01-22 00:55:00,
2013-01-21 20:00:00,29.2,28.0,29.92,NNW,337,0.0,1.4,95,0.00,,,0.00,Rainwise IP-100,2013-01-22 01:00:00,
2013-01-21 20:05:00,29.2,28.0,29.92,NNW,337,0.0,0.0,96,0.00,,,0.00,Rainwise IP-100,2013-01-22 01:05:00,
2013-01-21 20:10:00,29.3,28.0,29.91,NNW,337,2.1,0.0,96,0.00,,,0.00,Rainwise IP-100,2013-01-22 01:10:00,
2013-01-21 20:15:00,29.3,28.0,29.91,NNW,337,1.9,3.3,96,0.00,,,0.00,Rainwise IP-100,2013-01-22 01:15:00,
2013-01-21 20:20:00,29.0,28.0,29.91,NNW,337,1.9,3.3,96,0.00,,,0.00,Rainwise IP-100,2013-01-22 01:20:00,
2013-01-21 20:25:00,28.8,28.0,29.91,NNW,337,1.2,3.5,96,0.00,,,0.00,Rainwise IP-100,2013-01-22 01:25:00,
2013-01-21 20:30:00,28.5,28.0,29.91,NNW,337,3.0,3.5,96,0.00,,,0.00,Rainwise IP-100,2013-01-22 01:30:00,
2013-01-21 20:35:00,28.4,26.0,29.91,NNW,337,1.6,4.4,96,0.00,,,0.00,Rainwise IP-100,2013-01-22 01:35:00,
2013-01-21 20:40:00,28.3,26.0,29.91,NNW,337,0.0,3.5,96,0.00,,,0.00,Rainwise IP-100,2013-01-22 01:40:00,
2013-01-21 20:45:00,28.2,26.0,29.91,NNW,337,0.0,3.0,96,0.00,,,0.00,Rainwise IP-100,2013-01-22 01:45:00,
2013-01-21 20:50:00,28.2,26.0,29.91,NNE,22,1.2,3.3,96,0.00,,,0.00,Rainwise IP-100,2013-01-22 01:50:00,
2013-01-21 20:56:00,28.0,26.0,29.90,NNE,22,0.0,3.0,96,0.00,,,0.00,Rainwise IP-100,2013-01-22 01:56:00,
2013-01-21 21:00:00,27.9,26.0,29.90,NNW,337,4.0,4.7,96,0.00,,,0.00,Rainwise IP-100,2013-01-22 02:00:00,
2013-01-21 21:06:00,27.9,28.0,29.90,NNW,337,1.9,6.1,97,0.00,,,0.00,Rainwise IP-100,2013-01-22 02:06:00,
2013-01-21 21:11:00,27.8,28.0,29.90,NNW,337,3.0,5.6,97,0.00,,,0.00,Rainwise IP-100,2013-01-22 02:11:00,
2013-01-21 21:16:00,27.6,28.0,29.89,North,360,1.4,5.1,97,0.00,,,0.00,Rainwise IP-100,2013-01-22 02:16:00,
2013-01-21 21:21:00,27.5,28.0,29.89,NNW,337,0.0,3.5,97,0.00,,,0.00,Rainwise IP-100,2013-01-22 02:21:00,
2013-01-21 21:26:00,27.4,28.0,29.88,NNW,337,3.5,5.1,97,0.00,,,0.00,Rainwise IP-100,2013-01-22 02:26:00,
2013-01-21 21:31:00,27.4,28.0,29.87,NNW,337,1.9,3.7,97,0.00,,,0.00,Rainwise IP-100,2013-01-22 02:31:00,
2013-01-21 21:36:00,27.4,28.0,29.87,NNW,337,3.5,4.7,97,0.00,,,0.00,Rainwise IP-100,2013-01-22 02:36:00,
2013-01-21 21:41:00,27.4,28.0,29.87,NNW,337,1.2,4.7,97,0.00,,,0.00,Rainwise IP-100,2013-01-22 02:41:00,
2013-01-21 21:46:00,27.5,28.0,29.86,NNW,337,4.7,5.4,97,0.00,,,0.00,Rainwise IP-100,2013-01-22 02:46:00,
2013-01-21 21:51:00,27.6,28.0,29.86,NNW,337,6.8,6.8,97,0.00,,,0.00,Rainwise IP-100,2013-01-22 02:51:00,
2013-01-21 21:56:00,27.6,28.0,29.86,NNW,337,1.4,6.8,97,0.00,,,0.00,Rainwise IP-100,2013-01-22 02:56:00,
2013-01-21 22:01:00,27.6,28.0,29.85,NNE,22,3.7,4.2,97,0.00,,,0.00,Rainwise IP-100,2013-01-22 03:01:00,
2013-01-21 22:06:00,27.6,28.0,29.84,NNW,337,0.0,6.3,98,0.00,,,0.00,Rainwise IP-100,2013-01-22 03:06:00,
2013-01-21 22:11:00,27.6,28.0,29.85,NNW,337,2.3,6.1,98,0.00,,,0.00,Rainwise IP-100,2013-01-22 03:11:00,
2013-01-21 22:16:00,27.7,28.0,29.84,NNW,337,4.4,6.1,98,0.00,,,0.00,Rainwise IP-100,2013-01-22 03:16:00,
2013-01-21 22:21:00,27.8,28.0,29.84,NNW,337,2.8,5.4,98,0.00,,,0.00,Rainwise IP-100,2013-01-22 03:21:00,
2013-01-21 22:26:00,27.9,28.0,29.84,NNW,337,3.5,5.4,98,0.00,,,0.00,Rainwise IP-100,2013-01-22 03:26:00,
2013-01-21 22:31:00,27.9,28.0,29.84,NNW,337,1.6,4.9,98,0.00,,,0.00,Rainwise IP-100,2013-01-22 03:31:00,
2013-01-21 22:36:00,28.0,28.0,29.83,NNW,337,3.3,5.1,98,0.00,,,0.00,Rainwise IP-100,2013-01-22 03:36:00,
2013-01-21 22:41:00,28.1,28.0,29.82,NNW,337,1.6,4.9,98,0.00,,,0.00,Rainwise IP-100,2013-01-22 03:41:00,
2013-01-21 22:46:00,28.1,28.0,29.82,NNW,337,2.3,4.7,98,0.00,,,0.00,Rainwise IP-100,2013-01-22 03:46:00,
2013-01-21 22:51:00,28.2,28.0,29.82,NNW,337,0.0,2.3,98,0.00,,,0.00,Rainwise IP-100,2013-01-22 03:51:00,
2013-01-21 22:56:00,28.2,28.0,29.81,NNW,337,2.8,6.3,98,0.00,,,0.00,Rainwise IP-100,2013-01-22 03:56:00,
2013-01-21 23:01:00,28.3,28.0,29.81,NNW,337,6.3,7.9,98,0.00,,,0.00,Rainwise IP-100,2013-01-22 04:01:00,
2013-01-21 23:06:00,28.3,28.0,29.80,NW,315,4.7,7.9,98,0.00,,,0.00,Rainwise IP-100,2013-01-22 04:06:00,
2013-01-21 23:11:00,28.3,28.0,29.80,NNW,337,4.7,6.3,98,0.00,,,0.00,Rainwise IP-100,2013-01-22 04:11:00,
2013-01-21 23:16:00,28.3,28.0,29.81,NNW,337,2.3,6.3,98,0.00,,,0.00,Rainwise IP-100,2013-01-22 04:16:00,
2013-01-21 23:21:00,28.3,28.0,29.81,NNW,337,1.2,6.3,98,0.00,,,0.00,Rainwise IP-100,2013-01-22 04:21:00,
2013-01-21 23:26:00,28.4,28.0,29.81,WNW,292,2.6,4.9,98,0.00,,,0.00,Rainwise IP-100,2013-01-22 04:26:00,
2013-01-21 23:31:00,28.5,29.0,29.80,NW,315,2.8,4.7,98,0.00,,,0.00,Rainwise IP-100,2013-01-22 04:31:00,
2013-01-21 23:36:00,28.6,29.0,29.80,NNW,337,1.2,4.2,98,0.00,,,0.00,Rainwise IP-100,2013-01-22 04:36:00,
2013-01-21 23:41:00,28.6,29.0,29.80,NNW,337,0.0,1.6,99,0.00,,,0.00,Rainwise IP-100,2013-01-22 04:41:00,
2013-01-21 23:46:00,28.6,29.0,29.80,NNW,337,0.0,1.9,99,0.00,,,0.00,Rainwise IP-100,2013-01-22 04:46:00,
2013-01-21 23:51:00,28.6,29.0,29.80,NNW,337,2.8,3.7,99,0.00,,,0.00,Rainwise IP-100,2013-01-22 04:51:00,
2013-01-21 23:56:00,28.6,29.0,29.79,NW,315,2.6,4.7,99,0.00,,,0.00,Rainwise IP-100,2013-01-22 04:56:00,